Dewpoint
48 49 51 51 53 54 54 55 56 56 58 59 59 59 59 59 59 60 59 61 61 62 61 59 61 62 62 62 62 63 62 63 63 64 63 64 65 64 62 63 65 64 66 64 64 64 64 64 64 64 65 65 66 66 65 65 64 65 65 63 62 64 64 64 62 59 61 62 62 60 62 63 60 61 61 60 60 60 58 60 61 62 62 61 62
47 47 49 51 52 53 53 54 54 55 58 58 58 58 58 59 60 60 61 60 61 60 60 62 61 61 61 61 62 62 63 62 62 62 63 63 62 64 63 62 63 62 65 63 63 64 65 64 63 63 63 64 63 65 65 64 62 62 62 63 62 63 64 62 60 59 60 61 61 62 61 62 60 61 63 62 61 60 59 61 60 60 60 62 61
46 48 49 50 51 52 53 53 53 55 56 57 57 57 58 59 58 59 59 60 60 60 61 61 61 60 60 60 60 60 61 63 63 62 62 61 62 64 63 63 63 63 62 63 62 63 61 62 62 63 63 63 64 65 65 64 63 64 60 61 61 62 63 62 62 61 61 60 61 59 61 61 62 60 59 60 60 59 59 60 60 60 60 62 61
46 47 49 49 50 51 52 53 53 54 54 54 55 56 57 58 58 58 58 58 57 59 59 59 58 59 60 58 58 61 59 60 61 61 62 60 60 62 62 62 62 62 62 61 61 61 62 63 63 63 64 64 64 66 64 64 65 65 65 62 61 61 63 64 62 62 62 61 60 58 59 60 61 61 60 60 60 60 60 60 61 60 60 60 60
46 46 48 49 50 50 51 51 52 53 54 54 55 55 56 57 57 56 56 58 58 59 59 58 60 59 59 57 55 54 53 53 53 54 56 60 61 61 60 60 61 61 62 62 62 62 62 62 62 63 64 64 65 64 64 64 63 64 63 63 62 62 62 62 62 62 61 60 61 61 60 60 61 62 60 59 61 61 62 61 61 60 60 60 60
44 46 47 48 48 50 51 52 52 53 53 54 54 54 54 55 55 56 56 56 58 58 58 59 56 54 53 51 50 50 49 48 48 48 50 54 57 61 62 61 62 62 63 63 63 63 63 62 62 62 62 62 62 63 64 62 63 63 62 63 61 60 62 63 62 62 62 62 62 61 62 60 61 62 61 61 61 60 60 61 61 61 60 60 60
46 43 46 48 48 49 50 51 51 52 53 53 53 53 53 54 53 54 55 56 56 58 56 54 53 51 49 48 48 47 47 45 45 45 46 48 52 57 59 61 60 61 60 61 62 63 64 63 64 64 63 62 63 63 63 64 63 64 63 65 63 62 61 61 60 62 62 61 61 62 61 62 62 61 60 60 61 61 62 61 61 60 61 60 60
44 45 45 47 48 48 49 50 50 51 51 51 51 52 52 52 52 53 54 55 56 55 53 52 51 49 47 46 46 46 44 43 42 41 42 44 47 52 57 59 59 60 61 60 61 61 62 62 62 62 61 62 62 62 63 64 63 63 64 63 64 62 63 64 64 64 62 61 60 60 61 62 61 62 61 61 61 61 60 61 60 61 60 60 61
43 44 45 46 47 48 49 49 49 49 49 50 50 51 50 51 51 51 53 54 55 55 53 51 49 47 45 44 43 43 43 42 41 40 40 41 43 48 55 57 58 58 58 59 60 60 60 61 63 62 61 61 58 57 57 57 61 62 62 63 62 63 61 61 62 64 62 62 61 62 62 60 61 61 61 61 61 60 62 62 62 61 62 62 62
42 43 44 44 46 46 47 48 48 49 49 49 49 49 49 50 50 50 51 51 52 53 52 52 49 47 45 44 43 43 41 41 41 39 39 40 42 46 52 56 57 56 57 57 58 58 59 60 60 61 61 60 57 53 51 51 53 57 60 62 63 61 61 61 61 62 62 62 62 61 62 60 61 62 61 62 63 63 62 63 62 62 62 62 62
42 43 43 44 44 45 46 47 47 47 48 49 49 48 47 48 48 48 50 50 50 51 51 50 51 49 45 43 43 43 41 38 38 37 37 38 41 45 50 54 56 57 57 57 56 57 57 57 58 59 60 58 55 50 50 49 49 48 49 51 55 60 61 61 62 62 60 59 62 61 61 61 62 62 64 64 63 63 63 62 62 62 61 61 59
42 42 43 44 44 43 44 45 46 47 47 46 47 47 47 47 47 48 49 50 50 50 49 48 48 48 48 45 44 43 41 38 36 37 37 37 39 43 50 52 54 54 53 51 52 54 55 56 57 58 57 53 49 48 48 47 46 47 47 48 48 48 50 58 60 60 61 60 62 61 61 61 62 63 63 63 64 64 63 63 63 61 62 63 60
42 43 43 43 43 45 43 43 44 45 46 46 47 47 46 47 47 47 48 49 49 48 48 48 48 48 47 45 45 42 40 36 36 36 36 36 37 41 48 49 50 50 49 48 49 50 51 52 54 55 52 50 47 44 45 45 45 46 48 50 51 48 45 44 46 57 61 61 61 61 61 62 61 61 63 64 64 64 64 63 61 62 62 62 62
42 42 43 43 43 44 43 43 44 44 44 44 45 45 46 46 48 48 47 48 48 48 48 48 47 47 47 46 45 43 39 36 35 36 36 36 36 38 47 48 49 48 48 47 48 49 50 50 50 51 50 45 43 42 43 44 45 47 51 54 57 57 51 45 44 44 50 59 61 60 61 62 63 63 64 64 63 64 63 63 64 62 61 63 64
42 42 43 43 44 44 43 43 44 44 44 44 45 45 46 47 46 46 47 47 47 46 46 47 46 46 46 45 44 44 40 35 35 35 35 35 36 39 46 47 46 46 47 46 47 48 48 48 49 50 49 45 41 40 40 41 43 46 48 50 52 54 57 58 59 61 58 57 60 61 61 62 63 63 64 63 64 65 65 64 64 64 63 64 63
40 42 41 42 42 43 43 44 44 43 44 44 44 45 45 46 46 46 47 46 46 45 46 46 45 45 44 44 44 43 41 35 35 35 35 35 36 43 44 44 44 45 45 45 45 46 46 46 46 47 46 46 40 38 38 40 42 45 47 48 49 51 53 56 52 53 58 60 60 61 62 62 56 63 64 64 64 65 63 65 65 65 62 61 61
38 40 40 41 42 43 43 43 44 44 44 44 44 44 45 45 45 45 45 45 45 45 45 45 44 43 43 43 43 42 41 37 35 35 35 35 37 42 42 41 43 43 43 44 43 44 45 43 44 44 44 43 38 36 37 39 42 43 44 46 48 49 50 52 50 48 47 47 47 47 47 47 47 48 47 47 54 58 61 61 62 62 61 61 59
37 39 40 40 41 42 42 42 43 43 43 43 44 45 44 44 44 45 44 43 43 43 43 43 43 42 41 41 41 41 41 38 35 35 35 35 36 40 39 40 42 41 42 43 43 43 43 42 43 42 41 39 36 36 36 39 41 42 44 44 45 46 48 49 51 53 48 48 46 44 44 45 45 45 46 46 47 49 57 58 59 60 60 61 61
37 38 39 40 41 42 43 43 43 43 42 44 45 44 43 43 44 44 43 42 43 42 42 42 41 41 41 42 41 40 40 39 35 35 35 35 35 39 38 38 39 40 40 40 42 41 42 42 44 40 38 36 35 35 36 38 40 41 42 43 44 45 47 48 48 47 48 48 49 52 57 52 58 60 58 50 47 50 57 58 60 60 60 61 60
36 37 39 41 42 42 43 44 44 43 42 43 44 43 43 43 44 44 43 41 41 42 42 41 40 40 41 41 41 40 39 39 38 35 35 34 34 36 38 37 36 37 38 38 39 41 40 40 40 36 34 34 34 35 35 36 38 41 42 42 43 44 44 43 44 44 45 46 47 49 50 51 53 56 59 61 62 58 59 59 59 59 59 60 60
38 38 40 40 40 41 42 43 44 44 43 43 43 43 43 43 44 43 42 43 42 42 43 42 40 39 39 40 40 40 40 39 39 35 35 35 34 34 36 36 35 36 37 38 38 38 37 37 38 37 34 34 34 34 35 35 37 42 43 40 39 38 38 41 43 44 45 46 47 48 49 49 50 53 55 57 57 59 61 61 61 61 60 60 59
39 38 39 38 40 41 42 43 45 44 43 43 43 42 43 42 42 42 41 42 43 42 42 41 39 38 38 38 40 40 40 38 38 36 35 35 35 34 34 36 34 36 37 37 37 37 37 36 37 35 33 33 34 34 34 35 36 38 35 34 35 35 38 41 44 44 45 45 45 45 47 46 45 47 50 54 55 57 59 60 62 62 62 62 60
37 37 38 39 40 41 42 43 43 43 44 43 42 42 42 42 42 42 42 42 42 41 41 41 40 38 38 37 37 38 39 40 37 37 35 35 35 34 34 35 34 37 37 38 38 37 36 36 36 35 33 34 33 34 34 36 35 34 34 34 34 34 38 44 44 45 45 46 46 46 47 47 48 47 47 49 52 56 57 59 60 61 62 62 62
37 38 39 39 40 39 40 41 41 42 42 42 41 41 41 41 40 40 40 39 37 38 37 39 38 37 36 36 37 36 38 36 37 36 35 35 35 34 34 34 35 35 36 37 37 36 36 35 33 33 33 34 33 34 34 35 33 33 33 34 34 37 39 39 39 41 42 44 45 46 47 47 48 49 49 51 51 54 55 58 60 60 60 61 62
39 39 39 39 40 39 39 39 40 40 41 40 40 38 40 40 37 38 39 38 37 36 35 35 35 35 35 36 34 35 37 36 36 36 35 35 34 34 34 34 35 34 35 37 37 36 35 34 33 33 33 34 34 34 34 34 33 33 34 33 39 36 37 36 36 38 39 39 39 40 40 42 42 44 47 48 51 53 53 54 56 58 59 60 62
39 38 38 39 39 37 38 38 37 39 40 38 38 37 38 37 36 35 34 34 35 35 33 32 32 33 33 33 33 34 35 34 34 34 35 34 34 34 34 34 36 36 37 35 34 34 35 33 34 33 33 34 35 35 35 35 34 34 34 36 36 34 34 33 34 35 35 35 35 36 37 38 38 40 43 45 47 49 51 52 53 52 55 57 58
39 39 38 38 39 38 38 35 35 37 38 36 36 36 35 36 37 34 32 33 34 33 33 32 31 30 32 32 32 31 32 32 30 29 31 32 32 33 33 34 35 35 34 35 34 35 36 35 33 33 33 34 35 34 34 34 34 34 33 33 35 33 34 33 33 34 33 32 33 33 35 35 37 38 40 41 43 45 48 49 51 51 53 54 56
39 38 39 38 36 36 34 32 35 33 34 34 32 33 35 36 36 34 35 33 32 32 33 32 31 31 30 30 30 28 27 27 28 27 30 30 31 30 31 33 33 33 33 32 33 34 36 35 35 35 35 34 33 35 33 35 33 33 33 32 33 33 34 35 35 33 33 32 32 32 33 34 35 36 36 37 38 40 42 43 45 47 49 52 52
40 39 37 36 35 35 36 35 33 32 33 35 33 32 33 35 36 38 37 32 32 32 32 32 30 30 28 30 29 28 25 26 30 30 31 30 30 30 31 31 31 31 32 31 32 35 34 34 33 33 32 33 31 32 31 31 31 33 34 33 32 32 32 31 32 31 31 31 31 31 31 32 33 34 34 35 36 37 39 39 41 43 46 49 51
39 39 36 36 37 35 36 34 33 33 31 31 35 36 33 35 34 34 35 34 34 33 32 30 28 27 27 29 31 26 25 28 30 30 30 30 29 29 29 30 30 30 30 30 32 33 32 30 31 29 30 30 27 27 29 29 30 29 30 31 32 31 30 31 30 29 30 31 31 30 30 31 31 31 32 33 34 35 35 36 39 42 45 48 50
37 36 36 35 34 36 35 35 35 33 33 32 32 32 36 32 34 34 35 35 34 34 33 32 31 30 29 25 28 31 30 30 29 29 29 29 29 29 29 29 29 29 30 30 31 30 28 27 26 26 28 27 27 24 24 24 26 26 27 28 29 29 29 29 29 28 29 29 29 30 30 30 30 30 31 31 32 32 34 35 36 39 40 42 45
34 33 33 35 35 33 35 36 35 36 32 31 30 29 29 32 30 33 34 34 34 34 34 33 32 31 30 29 27 25 28 28 28 28 28 28 28 28 28 29 29 29 29 31 28 27 26 25 26 25 24 25 25 23 23 25 23 23 24 25 24 24 26 28 28 29 29 28 28 29 29 29 29 29 29 30 31 32 33 34 35 37 37 39 41
36 35 34 36 36 33 33 35 35 35 35 33 34 30 27 27 28 30 29 33 32 31 30 31 31 31 28 28 27 27 27 27 27 27 27 27 28 28 29 29 29 29 30 29 26 27 26 26 25 25 24 25 24 25 22 23 23 22 22 23 23 23 24 25 25 25 26 26 27 28 28 28 28 29 29 30 30 31 31 32 33 35 36 37 37
35 34 34 35 34 35 34 35 34 34 33 31 30 28 28 30 28 29 28 30 29 30 32 32 30 29 30 28 26 26 26 26 26 26 26 26 27 28 28 29 30 30 29 26 25 23 25 25 24 24 23 23 25 25 24 23 22 22 22 23 23 23 23 24 23 23 23 23 24 26 27 27 28 28 28 28 30 31 31 32 33 34 34 34 35
33 33 34 36 35 36 35 35 35 35 33 33 32 31 32 32 29 28 25 24 25 26 29 28 28 30 27 26 28 26 25 25 25 26 26 26 27 28 29 28 26 28 27 26 23 24 24 24 24 24 23 23 24 24 24 25 21 21 23 21 22 21 21 21 22 23 22 23 23 23 23 26 27 28 29 29 29 30 30 31 32 32 32 33 33
32 28 33 33 30 34 34 35 36 35 33 32 32 27 27 27 27 27 28 28 28 26 24 28 27 30 31 29 28 27 25 24 25 26 25 26 26 28 24 21 20 22 22 23 22 24 24 24 24 24 23 22 24 24 23 24 23 21 21 21 21 21 21 21 21 21 23 22 22 22 23 23 24 25 26 27 28 28 29 31 31 32 32 32 33
30 26 27 31 30 31 34 35 36 35 31 29 29 29 31 31 28 29 28 28 28 25 26 27 26 31 30 29 28 28 28 26 26 26 26 25 27 26 20 20 20 21 19 23 22 21 23 24 23 23 23 23 22 23 22 23 22 21 21 20 20 20 21 20 20 22 21 21 20 21 22 23 23 24 24 26 27 27 28 30 30 31 31 32 32
30 25 24 29 33 33 35 35 34 33 31 29 29 29 27 29 28 25 26 27 26 24 25 25 26 22 20 21 23 22 22 27 28 28 28 27 23 20 22 22 21 20 21 21 22 23 22 22 22 23 22 22 23 23 21 22 20 20 20 20 19 20 22 21 22 21 21 19 20 20 21 21 22 23 24 25 26 27 28 29 29 30 31 31 32
31 29 31 31 31 31 33 33 34 33 31 30 29 28 26 27 27 27 25 27 26 26 25 24 23 21 21 21 19 20 23 17 17 17 18 18 19 18 18 20 21 20 20 20 22 20 20 20 21 21 21 22 20 21 20 20 20 19 20 20 19 19 20 19 19 19 20 20 20 21 22 21 22 22 24 24 25 26 26 28 30 30 30 31 31
28 28 30 31 29 30 31 31 32 33 29 30 27 28 27 26 28 28 25 25 25 23 24 21 22 23 23 21 18 19 19 18 16 17 18 17 17 19 18 18 20 21 19 20 20 20 21 20 22 22 21 20 20 20 20 20 21 19 18 20 18 20 20 19 19 19 19 20 20 20 20 21 22 22 23 23 25 25 27 28 29 30 30 30 31
26 25 30 29 28 30 30 30 31 30 29 26 26 26 27 26 25 24 24 24 25 23 24 24 23 24 23 21 22 22 22 21 16 17 17 17 18 18 18 19 19 19 19 19 19 19 19 21 19 20 20 19 20 21 20 19 20 19 18 19 18 18 18 19 18 18 19 20 19 19 19 20 20 20 21 23 24 26 27 27 28 29 29 30 30
25 22 28 29 30 30 29 29 29 29 29 28 26 26 25 25 26 24 24 22 21 21 20 21 22 24 24 25 23 23 23 20 17 18 18 17 18 17 18 19 19 18 18 18 19 21 20 20 20 21 20 20 20 20 19 19 19 19 18 16 16 18 18 17 18 19 19 18 19 19 19 19 20 20 22 24 24 25 27 27 27 28 29 29 30
24 22 25 28 28 28 27 30 28 30 28 28 28 26 24 23 23 25 24 23 21 20 18 20 20 21 24 24 23 24 23 20 20 19 21 17 20 17 17 18 17 18 19 19 22 20 19 20 21 21 20 20 20 20 19 19 20 19 18 18 18 18 17 17 18 18 18 18 18 19 20 20 19 19 20 22 24 26 26 26 27 27 28 29 29
25 25 24 26 27 27 28 28 30 29 30 27 27 26 25 25 24 24 22 24 23 22 19 21 19 19 22 24 25 24 20 19 19 20 19 19 19 18 17 21 18 19 22 20 19 20 19 20 21 20 21 20 20 21 20 19 19 20 19 17 17 17 17 17 17 17 17 16 17 17 18 19 19 19 21 23 24 25 25 26 26 26 27 27 28
26 24 24 25 28 28 27 28 28 27 26 27 25 22 22 20 23 22 21 20 22 20 20 19 18 20 19 20 20 20 21 19 20 21 19 20 18 18 16 17 19 19 20 19 20 20 21 19 20 20 20 20 19 20 19 18 20 20 19 17 17 17 17 16 16 16 17 17 17 17 17 17 18 19 20 22 24 24 24 25 25 26 26 27 28
24 22 24 25 26 26 27 28 26 26 27 25 24 23 23 21 21 22 20 20 21 21 18 18 19 20 19 19 19 19 19 19 19 23 18 19 17 16 16 17 18 19 20 19 20 20 19 19 19 19 19 19 19 19 18 19 19 19 18 17 17 17 16 16 16 16 16 17 17 17 17 17 19 20 22 23 23 23 24 25 25 25 26 26 27
25 23 23 25 27 26 26 27 27 26 24 22 23 22 22 21 22 21 21 19 22 19 19 19 18 18 19 18 18 19 19 18 18 17 19 20 20 20 17 19 17 18 18 19 22 19 21 19 19 19 19 19 19 19 19 18 17 16 16 15 16 16 16 15 16 16 17 17 17 17 17 18 18 20 22 23 23 23 24 24 24 25 26 26 26
23 22 24 25 26 26 26 26 26 25 23 23 22 22 21 21 21 20 20 22 18 18 17 19 19 19 19 20 19 19 19 21 18 18 17 20 17 16 18 20 20 16 18 20 19 19 19 18 19 19 19 20 20 19 18 17 17 16 15 14 15 14 15 16 16 17 17 17 17 18 18 18 19 21 22 23 23 23 23 22 23 23 25 25 25
23 24 24 24 27 25 25 25 25 23 22 22 22 21 20 19 19 19 21 20 20 19 18 18 19 18 18 18 19 18 18 19 18 18 18 15 17 23 17 19 18 19 20 17 20 21 19 18 19 18 18 18 17 17 18 18 16 16 16 14 14 16 16 16 16 16 17 17 17 17 18 19 20 22 22 23 23 23 22 23 24 23 24 25 25
24 23 25 25 25 26 25 24 24 24 22 22 22 22 20 19 20 20 19 19 19 20 19 19 18 18 18 18 18 18 18 17 16 15 15 16 15 17 16 19 19 18 20 17 16 18 17 21 20 19 19 17 16 18 16 17 16 16 15 14 16 16 16 16 17 17 16 17 16 17 17 19 21 21 20 21 22 22 22 22 22 23 23 24 24
24 24 26 26 24 24 24 24 24 23 22 22 21 22 20 19 18 19 19 20 18 19 18 19 19 18 18 17 18 18 17 17 15 16 16 17 17 17 17 17 17 19 18 18 17 16 17 18 16 16 17 18 16 15 16 15 15 14 15 16 15 15 16 16 15 17 17 17 16 17 20 20 21 21 21 21 20 20 21 22 23 22 22 23 24